CZ-4 DEB

Satellite information

Favourite Embed

Satellite Type and Status

DEBRISIN ORBIT

Key statistics

Satellite CZ-4 DEB at a glance.

Uptime

9557

Days in orbit

Revolutions

≈ 14.7

Per day

Orbit

SSO

Sun Synchronous Orbit

Inclination

98.4

Latest

Satellite identification and parameters

Extended collection of information and parameters for CZ-4 DEB.

Object identification

Identified? True

Debris? True

Object name: CZ-4 DEB

International designator: 1999-057EV

Object number (NORAD): 26259

Object ID (CCSDS): 26259

Country: PEOPLES REPUBLIC OF CHINA (PRC)

Current information (Y/N): Y

RCS size: SMALL

Orbital parameters

Period: 97.762 minutes

Inclination: 98.3913 deg

SMA: 7029.749 km

Apoapsis: 694.973 km

Periapsis: 608.255 km

RAAN: 72.1066 deg

Eccentricy: 0.00616796

Argument of periapsis: 248.2684 deg

Mean anomaly: 165.6534 deg

Mean motion: 14.72967003 rev/day

Mean motion (dot): 0.00014385 rev/day2

B* drag term: 0.0021795832 1/REarth

Two-line elements (TLE)

Creation date: Dec. 12, 2025, 10:14 a.m.

Reference frame: TEME

Reference center: EARTH

Epoch: Dec. 12, 2025, 5:09 a.m. UTC

TLE line 0: 0 CZ-4 DEB

TLE line 1: 1 26259U 99057EV 25346.21478106 .00014385 00000-0 21796-2 0 9991

TLE line 2: 2 26259 98.3913 72.1066 0061680 248.2684 165.6534 14.72967003356650

Live tracking on map

Real-time ground track for satellite CZ-4 DEB.

In-orbit conjunctions

A list of the most updated potential collisions computed for object CZ-4 DEB.

Target Orbit TCA Probability of collision Miss distance Type
SL-14 R/B LEO 2025-08-03 11:54:24 0.0001187816 674.0 (m) ROCKET BODY
SL-14 R/B LEO 2025-08-01 23:58:47 0.0002049729 225.0 (m) ROCKET BODY
CZ-6A DEB LEO 2025-02-19 10:40:02 0.0001063964 564.0 (m) DEBRIS
THORAD AGENA D DEB SSO 2024-09-27 11:37:31 0.000124154 372.0 (m) DEBRIS

Associated space launch

The CBERS (China Brazil Earth Resources Satellite) or ZY 1 (Zi Yuan) satellites are designed for global coverage and include cameras to make optical observations and a data collecting system to gather data on the environment. They are unique systems due to the use of on-board sensors which combine features that are especially designed to resolve the broad range of space and time scales involved in the monitoring and preservation of the ecosystem. They are operated jointly by the China Centre for Resources Satellite Data and Application (CRESDA) and the Brazilian INPE (Instituto Nacional de Pesquisas Espaciais, National Institute of Space Research).

CZ-4 DEB was lifted into orbit during the mission ‘Long March 4B | Zi Yuan 1-1’, on board a Long March 4B space rocket.

The launch took place on Oct. 14, 1999, 3:15 a.m. from Launch Complex 7.

For more information about the launch, click the button.

Launch to space Long March 4B | Zi Yuan 1-1
Long March 4B | Zi Yuan 1-1

Agency: N/A

Status: Launch Successful

Launch date: Oct. 14, 1999, 3:15 a.m. UTC

Rocket: Long March 4B

Launch pad: Launch Complex 7

Location: Taiyuan Satellite Launch Center, People's Republic of China

...

Latest news about this satellite

There are no fresh news available about this satellite. Check back as we update our databases every day.


Newsletter sign-up

Weekly statistics, charts and insights to help you stay on top of the space industry.